Location: Corcelles
(46.1547°N, 4.7234°E)
Time: 10:31:55
(UTC+00:00)

Meteor 1-29 - Pass Details

Date: 14 July 2020
Orbit: 440 x 459 km, 97.7° (Epoch: 05 August)

Event Time Altitude Azimuth Distance (km) Brightness Sun altitude
Rises 00:54:53 0° 8° (N) 2,464 8.2 -20.5°
Reaches altitude 10° 00:56:57 10° 4° (N) 1,590 6.8 -20.4°
Maximum altitude 01:00:16 53° 287° (WNW) 566 3.3 -20.2°
Enters shadow 01:00:23 52° 278° (W) 569 3.2 -20.2°
